Погода в Кильмези

Россия / Удмуртская Республика     57°00′35″N   51°20′00″E
темп.,
°C
ветер,
м/с
пор.,
м/с
влажн.,
%
обл.,
%
осадки,
мм/ч
давл.,
гПа
погр.,
м
23 октября, сб
сб2301:00+9зюз6148435 0.5 998964
04:00+7зюз513826 0.5 1000874
07:00+6зюз6138631 0.1 1002919
10:00+7зюз5117854 0.1 10041190
13:00+8зюз51071100 0.0 10051241
16:00+8зюз4107192 0.0 1006918
19:00+5юз310835 0.0 1008323
22:00+4юз39877 0.0 1009263
24 октября, вс
вс2401:00+3ююз289059 0.0 1008178
04:00+2ююз279099 0.0 1008159
07:00+3ююз388914 0.3 1007303
10:00+4зюз37836 0.3 1007407
13:00+6зюз487115 0.0 10071113
16:00+5з41078100 0.1 10081148
19:00+4з3108468 0.3 1010551
22:00+4зюз3876100 0.3 1011386
25 октября, пн
пн2501:00+3зюз2779100 0.0 1012358
04:00+3зюз2685100 0.0 1012290
07:00+2зюз3697100 0.3 1012512
10:00+1ссз5996100 2.1 1014495
13:00+2с5878100 0.4 10171034
16:00+1ссз48705 0.4 1018913
19:00−1сз310805 0.0 1021466
22:00−2сз39865 0.0 1022382
26 октября, вт
вт2601:00−3зсз27885 0.0 1024272
04:00−3з25855 0.0 1024173
07:00−3юз258340 0.0 1024147
10:000ююз3865100 0.0 1023408
13:00+1юз5978100 0.1 1021742
16:000юз41196100 0.5 1020589
19:00+1юз398183 0.7 1019728
22:00+1юз3980100 0.7 1018390
27 октября, ср
ср2701:00−2юз289154 0.0 1018219
04:00−2ююз279545 0.0 1018198
07:00−2ююз3893100 0.0 1017253
10:000юз3983100 0.0 1016367
13:00+3юз4874100 0.0 1015558
16:00+2юз41076100 0.0 1014500
19:00+1юз41178100 0.0 1013443
22:00+2юз41177100 0.0 1012475